Location: Dehesa de la Cepeda
(40.6574°N, 4.3013°W)
Time: 13:38:38
(UTC+00:00)

SR - All Passes

Search period start: 04 August 2021 00:00
Search period end: 14 August 2021 00:00
Orbit: 577 x 877 km, 66.7° (Epoch: 03 August)

Date Brightness Start Highest point End Pass type
(mag) Time Alt. Az. Time Alt. Az. Time Alt. Az.
04 Aug - 04:39:10 10° S 04:44:24 35° ESE 04:49:27 10° NE visible
04 Aug - 06:21:05 10° WSW 06:26:27 38° NW 06:31:33 10° NNE daylight
04 Aug - 13:21:21 10° N 13:25:02 21° NE 13:28:29 10° E daylight
04 Aug - 15:02:53 10° NW 15:07:19 44° WSW 15:11:27 10° S daylight
05 Aug - 03:51:06 10° SSE 03:54:53 18° ESE 03:58:34 10° ENE visible
05 Aug - 05:30:40 10° SW 05:36:29 70° WNW 05:41:59 10° NNE daylight
05 Aug - 07:16:39 10° WNW 07:19:29 14° NW 07:22:13 10° N daylight
05 Aug - 12:32:47 10° NNE 12:34:41 12° NE 12:36:30 10° ENE daylight
05 Aug - 14:12:53 10° NNW 14:17:37 81° ENE 14:21:59 10° SSE daylight
06 Aug - 04:40:54 10° SSW 04:46:41 63° ESE 04:52:09 10° NE visible
06 Aug - 06:24:38 10° W 06:29:08 23° NW 06:33:27 10° N daylight
06 Aug - 13:23:16 10° NNW 13:27:41 37° NE 13:31:47 10° ESE daylight
06 Aug - 15:05:55 10° WNW 15:09:24 22° WSW 15:12:44 10° SSW daylight
07 Aug - 03:51:53 10° S 03:57:01 33° ESE 04:01:56 10° NE visible
07 Aug - 05:33:35 10° WSW 05:39:00 40° NW 05:44:08 10° NNE daylight
07 Aug - 12:34:01 10° N 12:37:32 20° NE 12:40:51 10° E daylight
07 Aug - 14:15:25 10° NW 14:19:53 48° WSW 14:24:03 10° S daylight
08 Aug - 03:03:59 10° SE 03:07:30 17° ESE 03:10:56 10° ENE visible
08 Aug - 04:43:14 10° SW 04:49:04 74° WNW 04:54:34 10° NNE visible
08 Aug - 06:28:58 10° WNW 06:31:59 14° NW 06:34:54 10° N daylight
08 Aug - 11:45:40 10° NNE 11:47:09 11° NE 11:48:37 10° ENE daylight
08 Aug - 13:25:28 10° NNW 13:30:10 74° ENE 13:34:30 10° SE daylight
09 Aug - 03:53:33 10° SSW 03:59:16 59° ESE 04:04:41 10° NE visible
09 Aug - 05:37:05 10° WSW 05:41:40 24° NW 05:46:03 10° N daylight
09 Aug - 12:35:53 10° NNW 12:40:13 35° NE 12:44:14 10° ESE daylight
09 Aug - 14:18:23 10° NW 14:21:59 23° WSW 14:25:25 10° SSW daylight
10 Aug - 03:04:37 10° S 03:09:37 30° ESE 03:14:25 10° NE visible
10 Aug - 04:46:05 10° SW 04:51:34 42° NW 04:56:44 10° NNE visible
10 Aug - 11:46:41 10° N 11:50:02 19° NE 11:53:12 10° E daylight
10 Aug - 13:27:57 10° NW 13:32:27 53° WSW 13:36:39 10° S daylight
11 Aug - 02:16:54 10° SE 02:20:07 15° ESE 02:23:15 10° ENE visible
11 Aug - 03:55:48 10° SSW 04:01:38 79° WNW 04:07:07 10° NNE visible
11 Aug - 05:41:18 10° WNW 05:44:29 15° NW 05:47:34 10° N daylight
11 Aug - 10:58:43 10° NNE 10:59:37 10° NE 11:00:33 10° NE daylight
11 Aug - 12:38:03 10° NNW 12:42:42 68° ENE 12:47:01 10° SE daylight
11 Aug - 14:22:47 10° W 14:23:57 11° WSW 14:25:06 10° WSW daylight
12 Aug - 03:06:11 10° S 03:11:51 55° ESE 03:17:13 10° NE visible
12 Aug - 04:49:31 10° WSW 04:54:12 26° NW 04:58:40 10° N visible
12 Aug - 11:48:30 10° NNW 11:52:43 32° NE 11:56:40 10° ESE daylight
12 Aug - 13:30:51 10° NW 13:34:34 25° WSW 13:38:06 10° SSW daylight
13 Aug - 02:17:22 10° SSE 02:22:13 28° ESE 02:26:52 10° NE visible
13 Aug - 03:58:37 10° SW 04:04:06 45° NW 04:09:19 10° NNE visible
13 Aug - 10:59:23 10° N 11:02:31 17° NE 11:05:32 10° E daylight
13 Aug - 12:40:30 10° NW 12:45:00 58° WSW 12:49:13 10° SSE daylight
